SCP
1 1 1 1 1 1 1 1 0 0 0 0 0 0 0 0 0 0 0 0 0 0 0 0 0 1 1 1 1 1 1 1 1 1 1 1 1 1 1 1 1 1 1
1 1 1 2 1 1 1 1 0 0 0 0 0 0 0 0 0 0 0 0 0 0 0 0 0 0 1 1 1 1 1 1 2 2 1 1 1 1 1 1 1 1 1
2 1 2 2 2 1 1 0 0 0 0 0 0 0 0 0 0 0 0 0 0 0 0 0 0 0 1 1 1 1 1 1 1 2 1 1 1 1 1 1 1 1 1
2 2 2 2 2 1 1 0 0 0 0 0 0 0 0 0 0 0 0 0 0 0 0 0 0 0 0 1 1 1 0 1 1 1 1 1 1 1 1 1 1 1 1
2 2 2 2 2 1 1 1 0 0 0 0 0 0 0 0 0 0 0 0 0 0 0 0 0 0 0 0 1 0 0 1 1 1 1 1 1 1 1 1 1 1 1
2 2 2 3 2 2 1 1 1 1 0 0 0 0 0 0 0 0 0 0 1 0 0 0 0 0 0 0 0 0 0 1 1 1 1 1 1 1 1 1 1 1 1
3 3 3 3 3 2 2 1 1 1 1 0 0 0 0 0 0 0 0 0 0 0 0 0 0 0 0 0 0 0 0 0 1 1 1 1 1 1 1 1 1 1 1
2 3 3 3 3 3 2 2 1 1 1 0 0 0 0 0 0 0 0 0 0 0 0 0 0 0 0 0 0 0 0 0 1 1 0 1 1 1 1 1 1 1 1
2 2 3 3 3 2 2 1 1 1 1 0 0 0 0 0 0 0 0 0 0 0 0 0 0 0 0 0 0 0 0 0 0 0 0 0 1 1 1 1 1 1 1
2 2 2 2 2 2 1 1 1 1 0 0 0 0 0 0 0 0 0 0 0 0 0 0 0 0 0 0 0 0 0 0 0 0 0 0 1 1 1 1 1 1 1
3 3 2 2 1 1 1 1 1 1 0 0 0 0 0 0 0 0 0 0 0 0 0 0 0 0 0 0 0 0 0 0 0 0 0 0 0 1 1 1 1 1 1
3 3 3 2 1 1 1 1 0 0 0 0 0 0 0 0 0 0 0 0 0 0 0 0 0 0 0 0 0 0 0 0 0 0 0 0 0 0 0 0 0 0 0
4 3 3 2 1 1 0 0 0 0 0 0 0 0 0 0 0 0 0 0 0 0 0 0 0 0 0 0 0 0 0 0 0 0 0 0 0 0 0 0 0 0 0
3 3 2 1 1 1 0 0 0 0 0 0 0 0 0 0 0 0 0 0 0 0 0 0 0 0 0 0 0 0 0 0 0 0 0 0 0 0 0 0 0 0 0
2 2 2 1 1 0 0 0 0 0 0 0 0 0 0 0 0 0 0 0 0 0 0 0 0 0 0 0 0 0 0 0 0 0 0 0 0 0 0 0 0 0 0
2 2 1 1 1 1 0 0 0 0 0 0 0 0 0 0 0 0 0 0 0 0 0 0 0 0 0 0 0 0 0 0 0 0 0 0 0 0 0 0 0 0 0
2 2 2 1 1 1 0 0 0 0 0 0 0 0 0 0 0 0 0 0 0 0 0 0 0 0 0 0 0 0 0 0 0 0 0 0 0 0 0 0 0 0 0
3 3 2 1 1 1 0 0 0 0 0 0 0 0 0 0 0 0 1 1 1 1 0 0 0 0 0 0 0 0 0 0 0 0 0 0 0 0 0 0 0 0 0
3 3 2 2 1 1 0 0 0 0 0 0 0 0 0 0 0 0 0 1 1 1 1 0 0 0 0 0 0 0 0 0 0 0 0 0 0 0 0 0 0 0 0
3 3 2 2 1 0 0 0 0 0 0 0 0 0 0 0 0 0 0 1 1 1 1 0 0 0 0 0 0 0 0 0 0 0 0 0 0 0 0 0 0 0 0
3 3 2 2 1 1 0 0 0 0 0 0 0 0 0 0 0 0 0 0 1 1 0 0 0 0 0 0 0 0 0 0 0 0 0 0 0 0 0 0 0 0 0
3 3 2 2 1 1 0 0 0 0 0 0 0 0 0 0 0 0 0 0 0 0 0 0 0 0 0 0 0 0 0 0 0 0 0 0 0 0 0 0 0 0 0
3 2 2 2 1 1 1 0 0 0 0 0 0 0 0 0 0 0 0 0 0 0 0 0 0 0 0 0 0 0 0 0 0 0 0 0 0 0 0 0 0 0 0
3 2 2 2 1 1 1 0 0 0 0 0 0 0 0 0 0 0 0 0 0 0 0 0 0 0 0 0 0 0 0 0 0 0 0 0 0 0 0 0 0 0 0
3 3 2 2 2 1 1 0 0 0 0 0 0 0 0 0 0 0 0 0 0 0 0 0 0 0 0 0 0 0 0 0 0 0 0 0 0 0 0 0 0 0 0
3 3 2 2 2 1 1 0 0 0 0 0 0 0 0 0 0 0 0 0 0 0 0 0 0 0 0 0 0 0 0 0 0 0 0 0 0 0 0 0 0 0 0
Wind_Speed
3 3 2 3 3 3 3 3 4 5 5 5 5 6 5 6 6 5 5 10 11 11 11 11 11 11 12 12 11 11 11 11 11 10 9 8 8 7 7 7 7 7 7
3 3 3 3 3 2 3 3 4 4 4 4 5 5 5 5 5 6 5 6 10 10 11 11 11 11 11 11 10 10 10 10 10 10 10 9 8 8 8 8 8 7 7
3 3 3 3 2 3 3 3 4 3 4 4 5 5 4 5 5 5 5 4 5 8 10 10 10 10 10 10 10 10 10 9 9 9 8 8 9 9 9 9 8 8 8
4 3 3 2 3 3 3 3 3 4 4 3 3 3 3 4 4 4 4 4 3 4 6 9 9 9 9 9 9 9 9 9 8 8 8 8 8 8 8 8 8 8 8
4 3 2 2 3 3 3 3 3 3 3 3 2 3 3 3 3 4 4 4 4 4 3 6 8 8 8 8 8 9 8 8 7 7 7 7 7 7 7 7 7 7 7
3 3 2 3 3 3 3 3 3 3 2 2 3 4 3 2 3 3 3 3 3 3 4 4 3 5 7 7 8 8 8 7 8 7 7 7 7 7 7 7 6 6 7
3 2 2 3 2 2 2 3 3 2 2 2 2 2 2 3 3 2 2 3 3 3 3 3 3 3 3 6 7 7 7 7 7 7 6 6 6 6 6 6 6 5 6
3 2 3 2 2 2 2 3 3 2 1 1 1 2 1 2 2 2 2 2 2 2 2 3 3 3 3 2 4 6 6 6 7 6 6 5 5 5 5 5 5 5 4
2 2 2 2 2 2 2 2 2 2 1 1 1 2 2 1 1 1 2 2 2 2 2 2 3 3 3 3 3 4 6 5 5 6 5 4 4 5 5 5 4 4 4
2 1 2 2 2 2 2 2 2 1 1 0 1 1 1 3 2 0 2 1 2 2 2 2 3 2 3 3 4 6 6 5 4 4 4 3 3 4 4 4 4 4 4
1 2 2 2 2 2 2 1 2 1 1 1 1 1 1 1 1 2 0 1 1 1 1 1 2 2 2 2 3 4 5 4 3 3 3 3 3 3 3 4 3 3 3
1 1 2 2 2 1 1 1 1 1 1 1 0 0 1 1 0 1 1 1 0 0 1 1 1 1 2 2 3 5 5 4 3 3 2 2 2 2 3 3 3 3 3
1 1 1 1 1 2 1 1 1 1 1 1 1 0 0 0 0 1 1 1 0 0 1 1 0 1 1 2 2 4 4 4 4 3 2 2 2 2 2 2 2 2 2
2 2 1 1 1 2 2 1 1 0 0 0 0 0 0 0 0 1 1 1 0 1 1 1 0 1 1 2 2 3 2 4 4 3 2 2 1 1 1 1 1 2 2
2 2 2 2 2 2 2 1 1 0 0 0 0 1 0 0 0 0 1 2 2 1 1 1 0 0 1 1 2 2 1 3 4 4 3 2 1 1 1 0 1 1 2
2 3 2 2 2 2 2 1 1 0 0 0 0 0 0 0 0 0 0 0 1 2 1 1 1 1 0 1 2 1 1 3 4 4 3 3 2 2 1 1 1 1 1
2 2 2 2 2 2 2 1 1 1 1 0 0 1 0 0 0 0 0 0 0 1 1 1 0 0 1 1 1 1 0 1 1 4 4 4 3 3 2 2 2 1 1
2 2 2 2 2 2 2 2 1 1 1 1 0 0 0 0 0 0 0 1 1 1 2 1 0 0 0 0 0 0 0 0 1 3 4 4 4 4 4 3 3 2 2
1 1 2 2 2 2 2 2 1 1 1 1 1 1 1 1 0 0 0 0 0 1 1 1 1 0 0 0 1 1 1 1 1 1 2 3 4 4 4 4 3 3 3
1 1 1 1 1 1 1 1 1 0 1 1 0 0 0 1 1 1 0 0 1 1 0 0 0 0 0 0 0 0 1 1 1 1 1 2 3 4 4 4 4 4 4
1 1 1 1 1 1 1 1 1 1 1 0 0 0 0 1 1 1 1 1 1 1 1 1 1 1 1 1 1 1 1 1 2 1 1 1 1 2 2 4 4 4 4
1 1 2 2 2 1 1 1 1 1 1 1 1 0 0 1 1 1 0 1 2 3 3 2 2 2 3 2 1 1 1 1 2 1 1 2 1 2 2 3 4 5 5
1 1 2 2 2 1 2 2 2 2 2 1 1 1 1 0 1 1 1 1 2 3 4 3 3 4 3 3 2 2 2 2 3 3 1 3 2 3 3 3 6 6 6
1 1 2 2 2 2 3 2 2 2 1 1 1 2 1 1 1 0 0 1 1 2 2 1 2 2 2 2 2 3 3 2 2 2 1 2 2 2 2 2 6 7 7
1 1 1 2 2 2 3 2 1 1 1 1 1 1 1 2 2 1 0 1 2 2 3 3 3 3 4 3 2 0 1 1 2 3 2 1 2 1 2 2 3 5 6
2 2 1 2 2 3 3 3 2 1 1 1 1 1 1 2 2 2 2 2 2 2 2 3 3 4 3 3 3 3 3 2 2 2 2 1 1 1 2 2 2 2 3
Wind_Direction
59 52 65 61 54 49 51 49 53 52 52 55 59 65 72 77 84 83 81 83 82 85 87 85 85 86 86 83 79 79 77 76 77 79 80 80 79 81 90 92 95 100 97
68 65 58 60 58 57 59 66 66 56 54 54 55 54 58 68 82 91 91 83 83 86 87 85 86 86 87 85 82 81 80 81 79 79 79 76 74 75 81 87 88 91 95
68 66 60 59 57 58 61 65 67 65 67 63 59 56 55 52 73 84 93 93 84 83 87 83 84 84 83 82 83 82 81 80 81 80 81 80 77 75 77 80 81 85 91
72 69 61 57 55 58 61 66 64 62 56 57 58 60 60 49 57 81 86 91 94 90 84 85 85 84 85 82 83 81 79 78 80 82 80 79 77 76 77 76 75 79 85
73 76 67 66 60 55 57 65 60 67 69 68 70 75 67 58 48 67 74 84 92 103 102 92 88 82 83 85 86 85 83 80 78 84 84 81 81 78 76 76 74 78 82
75 76 80 71 69 65 62 69 69 61 68 72 83 88 84 76 62 52 58 68 78 90 99 109 100 82 80 83 86 87 84 79 77 84 88 87 83 79 75 74 76 78 81
84 85 81 77 79 81 84 79 78 66 53 61 72 70 61 71 71 65 59 63 63 72 83 96 104 97 86 79 80 87 86 79 78 81 86 87 84 81 80 77 80 82 81
77 82 98 90 87 83 77 75 71 67 34 60 91 91 64 23 18 52 60 67 54 54 73 83 92 93 97 97 81 85 87 84 81 79 80 79 83 83 82 80 79 83 84
84 74 78 99 111 105 100 95 89 79 58 3 52 97 117 134 2 2 45 61 53 54 54 50 74 83 92 100 102 81 81 81 80 77 79 81 80 84 84 80 77 80 85
109 103 88 90 90 96 105 122 117 105 103 41 9 23 87 124 125 23 349 20 56 59 57 56 55 66 79 90 100 99 88 79 79 74 70 77 79 79 80 81 72 71 79
115 107 99 90 90 95 100 85 101 94 85 88 73 35 38 53 116 131 133 336 17 28 59 69 68 72 78 89 106 109 106 94 84 78 69 71 77 80 81 78 74 68 79
147 129 121 108 99 99 94 87 99 109 111 83 72 75 109 95 99 114 141 172 121 299 47 66 95 97 91 100 109 115 119 123 111 92 75 69 69 74 80 77 73 65 71
144 159 140 131 131 123 112 98 83 82 118 137 143 129 93 96 119 122 128 149 78 329 59 16 111 121 114 103 110 127 134 139 138 126 107 85 70 72 75 77 68 59 62
157 146 131 132 126 123 112 101 95 53 88 94 141 107 101 45 22 124 140 136 81 339 42 286 357 99 112 111 126 140 131 142 143 145 140 127 118 106 83 71 58 50 58
137 126 136 128 127 124 119 109 105 68 78 71 54 38 69 76 21 109 128 147 159 196 276 267 342 277 121 112 134 146 138 160 162 162 163 148 145 134 103 82 61 47 54
134 137 141 137 136 128 117 103 108 4 73 11 144 126 26 14 357 53 153 170 157 178 220 249 226 220 105 102 111 138 141 151 173 175 176 178 176 176 184 183 179 139 118
140 142 146 148 145 137 134 131 165 200 169 227 230 137 166 121 319 265 78 87 141 146 164 265 245 98 72 71 55 315 139 173 183 183 188 192 190 195 203 201 182 174 188
149 157 155 153 151 150 155 157 184 216 188 212 231 90 264 186 223 220 133 158 170 154 150 198 281 16 56 86 157 279 323 272 205 187 197 200 207 206 211 212 208 208 205
150 165 151 155 152 151 156 152 164 191 177 221 217 206 224 133 130 22 77 109 127 104 140 163 247 299 285 55 40 340 309 314 295 215 201 214 223 219 220 220 216 205 202
173 187 162 147 133 124 135 139 152 216 234 244 262 187 143 142 147 143 141 132 108 92 110 142 210 268 275 289 92 279 301 303 300 292 271 235 229 226 229 227 218 209 203
188 172 151 150 152 161 176 159 183 243 259 252 32 90 116 139 157 205 200 184 164 173 192 187 223 254 255 249 236 230 249 282 287 251 252 249 233 228 225 226 226 224 214
199 171 158 160 173 196 163 164 180 218 237 214 203 208 190 162 141 112 327 223 202 203 207 204 222 225 238 234 219 220 230 295 289 262 223 264 228 227 224 213 214 216 218
190 186 176 166 156 171 186 196 232 229 224 211 196 197 243 163 111 104 331 317 280 260 231 217 218 231 224 221 211 223 238 241 250 247 236 263 242 236 231 220 211 214 212
179 199 196 185 166 185 196 208 245 240 215 206 196 184 183 167 142 99 295 312 292 296 275 254 222 237 240 227 205 213 224 252 279 268 219 253 251 246 245 233 219 211 210
206 203 193 178 176 195 194 193 206 245 238 240 208 169 177 177 187 228 242 277 289 295 308 307 287 273 274 273 265 232 233 231 271 271 245 228 246 254 248 238 224 208 207
209 195 204 203 187 185 192 193 198 197 236 271 259 200 194 193 214 225 225 231 252 259 276 295 299 297 283 269 254 211 209 225 247 261 244 222 246 243 268 246 212 212 211